Showing default

IRIDIUM 156, 43576

Orbit data source: Space-Track

IRIDIUM 156, 43576 is a payload satellite owned by Iridium (US) in LEO that was launched on Wed, 25 Jul 2018 UTC via an FALCON 9 launch vehicle from the Air Force Western Test Range (AFWTR). Payload-class satellites include a variety of spacecraft equipped with specific instruments for various scientific and technological missions. These include communications satellites like Starlink; space stations such as the ISS; scientific satellites like the Hubble; Earth observation satellites from companies like Planet Labs, Umbra, and HawkEye 360; GPS; miniature CubeSats for education and research; and military/defense satellites.

Loading next visibility...
Identifier
43576, 2018-061H
Orbit
LEO
Country
Flag of USUS
Related business
Manufacturer
NGIS SSG Gilbert
Mission
Operational Commercial Communications
Bus & Motor
ELITEBUS, Unknown motor
Mass
860 kg wet, 700 kg dry
Launch date (UTC)
2018-07-25 (8 years ago)
Launch vehicle
FALCON 9
Launch site
Air Force Western Test Range (AFWTR)
Object type
Payload
Rocket body
Debris
Shape & HBR
Trap Box + 2 Pan, 4.8 m
Radar Cross Section
10.154 m², Large (>1 m²)

Expand to show TLE details & history
Last TLE update: 8 hours ago

TLE from 8 hours ago
0 IRIDIUM 156
1 43576U 18061H   26256.58391353  .00000132  00000-0  40225-4 0  9992
2 43576  86.4002  19.7566 0002164  90.0276 270.1167 14.34216661426042
Epoch: 2026-09-13T14:00Z
TLE epoch observation values (Epoch: 2026-09-13T14:00:50.128Z)
Latitude
-0.00007°
Longitude
176.97125°
Altitude
780.719 km
Speed
7.463 km/s
True Right ascension
01h 19m 01s
True Declination
0° 00' 00"
Sunlit
Object was in full shadow at epoch
Visualization orbit readout
Latitude
Unknown
Longitude
Unknown
Altitude
Unknown
Speed
Unknown
Apparent Right ascension
Unknown
Apparent Declination
Unknown
Sunlit
N/A
Visualization observer readout
Local Sidereal Time
14:21:26
Azimuth
Unknown
Elevation
Unknown
Doppler factor
Unknown
Orbital elements
Apogee altitude
776.183 km
Perigee altitude
773.087 km
Semi-major axis
7,152.772 km
Eccentricity
0.00022
Inclination
86.4002°
RAAN
19.7566°
Arg. of periapsis
90.0276°
True anomaly
270.0919°
Mean anomaly
270.1167°
Eccentric anomaly
270.1043°
Mean motion
3.58783 °/min
Orbital period
100.34 mins
BSTAR
0.000040225
Loading maneuver chart data...
Computing Atmospheric mass density...
Loading historical data...
Loading historical data...
Loading historical data...
Loading historical data...
Loading historical data...
Loading historical data...
Loading historical data...

Documentation

Showing up to 5 results
|